This demonstration page uses our WeatherBlox Daily Observations layout. Learn more.

Left ArrowRight Arrow

40.92945, -100.16068

Hourly Observations for October 8, 2016

Temp ( °F °C ) Dew Point ( °F °C ) Humidity (%) Winds ( mph kmh ) Pressure ( in mb ) Visibility ( mi km ) Precip ( " mm )
12:15 am 00:15 Clear 45 7.3 32 0.2 61 61 S 7 11 30.24 1024 10 16 N/A
12:35 am 00:35 Clear 45 7.1 32 0.1 61 61 S 8 13 30.24 1024 10 16 N/A
12:55 am 00:55 Clear 45 7 32 0.1 62 62 S 7 11 30.24 1024 10 16 N/A
1:15 am 01:15 Clear 46 7.7 32 undefined 59 59 SSW 10 17 30.24 1024 10 16 N/A
1:35 am 01:35 Clear 47 8.2 32 undefined 57 57 S 10 17 30.24 1024 10 16 N/A
1:55 am 01:55 Clear 47 8.3 32 -0.1 56 56 S 9 15 30.24 1024 10 16 N/A
2:15 am 02:15 Clear 48 8.8 32 -0.1 54 54 SSW 10 17 30.21 1023 10 16 N/A
2:35 am 02:35 Clear 48 8.8 32 -0.1 54 54 SSW 9 15 30.21 1023 10 16 N/A
2:55 am 02:55 Clear 50 10 32 -0.2 49 49 SSW 10 17 30.21 1023 10 16 N/A
3:15 am 03:15 Clear 50 9.8 32 -0.2 50 50 SSW 9 15 30.21 1023 10 16 N/A
3:35 am 03:35 Clear 49 9.5 32 -0.2 51 51 SSW 12 19 30.21 1023 10 16 N/A
3:55 am 03:55 Clear 49 9.3 32 -0.2 52 52 SSW 10 17 30.21 1023 10 16 N/A
4:15 am 04:15 Clear 49 9.2 32 -0.2 52 52 SSW 12 19 30.21 1023 10 16 N/A
4:35 am 04:35 Clear 49 9.5 32 undefined 52 52 SSW 9 15 30.21 1023 10 16 N/A
4:55 am 04:55 Clear 49 9.2 32 undefined 53 53 SSW 8 13 30.21 1023 10 16 N/A
5:15 am 05:15 Clear 47 8.6 32 undefined 55 55 SSW 9 15 30.21 1023 10 16 N/A
5:35 am 05:35 Clear 48 8.7 32 0.1 55 55 SSW 8 13 30.21 1023 10 16 N/A
5:55 am 05:55 Clear 49 9.3 32 0.2 53 53 SW 7 11 30.21 1023 10 16 N/A
6:15 am 06:15 Clear 48 8.9 32 0.2 55 55 SSW 7 11 30.21 1023 10 16 N/A
6:35 am 06:35 Clear 47 8.5 33 0.4 57 57 SW 6 9 30.27 1025 10 16 N/A
6:55 am 06:55 Clear 46 7.9 32 0.2 59 59 N N/A 30.24 1024 10 16 N/A
7:15 am 07:15 Clear 44 6.7 32 undefined 63 63 N N/A 30.27 1025 10 16 N/A
7:35 am 07:35 Clear 47 8.4 32 0.2 57 57 WSW 3 6 30.27 1025 10 16 N/A
7:55 am 07:55 Sunny 44 6.7 32 0.2 64 64 SW 8 13 30.27 1025 10 16 N/A
8:15 am 08:15 Sunny 44 6.9 33 0.6 65 65 SW 3 6 30.27 1025 10 16 N/A
8:35 am 08:35 Sunny 44 6.6 34 1.3 69 69 SSW 3 6 30.27 1025 10 16 N/A
8:55 am 08:55 Sunny 50 10.2 35 1.8 56 56 S 3 6 30.24 1024 10 16 N/A
9:15 am 09:15 Sunny 52 11.3 36 2 53 53 S 3 6 30.24 1024 10 16 N/A
9:35 am 09:35 Sunny 55 12.5 36 2.1 49 49 S 10 17 30.21 1023 10 16 N/A
9:55 am 09:55 Sunny 56 13.3 35 1.7 46 46 SSW 10 17 30.21 1023 10 16 N/A
10:15 am 10:15 Sunny 57 14.1 36 2.1 45 45 SSW 8 13 30.21 1023 10 16 N/A
10:35 am 10:35 Sunny 60 15.4 35 1.9 40 40 SW 13 20 30.18 1022 10 16 N/A
10:55 am 10:55 Sunny 61 16 35 1.8 39 39 SW 16 26 30.18 1022 10 16 N/A
11:15 am 11:15 Sunny 62 16.7 35 1.8 37 37 SW 10 17 30.18 1022 10 16 N/A
11:55 am 11:55 Sunny 64 18 34 1.2 33 33 SW 9 15 30.18 1022 10 16 N/A
12:15 pm 12:15 Sunny 66 18.7 35 1.5 32 32 SSW 12 19 30.15 1021 10 16 N/A
12:35 pm 12:35 Sunny 67 19.3 35 1.5 31 31 SW 7 11 30.15 1021 10 16 N/A
12:55 pm 12:55 Sunny 68 20 35 1.7 30 30 SSW 8 13 30.12 1020 10 16 N/A
1:15 pm 13:15 Sunny 69 20.6 35 1.7 29 29 SW 5 7 30.12 1020 10 16 N/A
1:35 pm 13:35 Sunny 70 20.9 33 0.7 26 26 N N/A 30.12 1020 7 11 N/A
1:55 pm 13:55 Sunny 72 22.1 34 1.2 25 25 SW 5 7 30.09 1019 10 16 N/A
2:15 pm 14:15 Sunny 73 22.5 34 1 24 24 S 3 6 30.09 1019 10 16 N/A
2:35 pm 14:35 Sunny 73 22.9 34 0.9 23 23 S 5 7 30.06 1018 10 16 N/A
2:55 pm 14:55 Sunny 74 23.3 33 0.3 22 22 N N/A 30.06 1018 10 16 N/A
3:15 pm 15:15 Sunny 74 23.6 33 0.5 22 22 N N/A 30.06 1018 10 16 N/A
3:35 pm 15:35 Sunny 75 23.7 32 0.2 21 21 N 3 6 30.06 1018 10 16 N/A
3:55 pm 15:55 Sunny 74 23.3 31 -0.7 20 20 N N/A 30.06 1018 10 16 N/A
4:15 pm 16:15 Sunny 76 24.2 32 -0.1 20 20 N N/A 30.06 1018 10 16 N/A
4:35 pm 16:35 Sunny 75 24 32 0.1 21 21 ESE 3 6 30.06 1018 10 16 N/A
4:55 pm 16:55 Sunny 75 24 32 undefined 21 21 N N/A 30.06 1018 10 16 N/A
5:15 pm 17:15 Sunny 75 24 33 0.4 21 21 N N/A 30.06 1018 7 11 N/A
5:35 pm 17:35 Sunny 75 24 32 0.1 21 21 S 3 6 30.06 1018 10 16 N/A
5:55 pm 17:55 Sunny 74 23.1 35 1.8 25 25 E 5 7 30.06 1018 10 16 N/A
6:15 pm 18:15 Sunny 72 22.1 37 2.5 28 28 SSE 3 6 30.06 1018 10 16 N/A
6:35 pm 18:35 Sunny 72 22.2 32 0.1 23 23 SE 3 6 30.06 1018 10 16 N/A
6:55 pm 18:55 Sunny 69 20.6 34 1 27 27 N N/A 30.09 1019 10 16 N/A
7:15 pm 19:15 Clear 65 18.5 34 1.1 31 31 ENE 5 7 30.09 1019 7 11 N/A
7:35 pm 19:35 Clear 58 14.3 37 2.7 46 46 N N/A 30.15 1021 7 11 N/A
7:55 pm 19:55 Hazy 58 14.7 36 2 43 43 ENE 3 6 30.18 1022 3 4 N/A
8:15 pm 20:15 Mostly Cloudy with Haze 58 14.4 36 2 43 43 E 3 6 30.18 1022 1 2 N/A
8:35 pm 20:35 Clear 56 13.4 36 2.2 47 47 ENE 5 7 30.18 1022 10 16 N/A
8:55 pm 20:55 Clear 55 12.9 36 2 48 48 NE 7 11 30.18 1022 10 16 N/A
9:15 pm 21:15 Clear 54 12.2 37 2.7 53 53 E 6 9 30.21 1023 10 16 N/A
9:35 pm 21:35 Clear 53 11.9 37 2.9 54 54 ENE 5 7 30.24 1024 10 16 N/A
9:55 pm 21:55 Clear 54 12.2 37 3 54 54 NE 9 15 30.21 1023 10 16 N/A
10:15 pm 22:15 Clear 58 14.5 39 3.8 49 49 ENE 14 22 30.21 1023 10 16 N/A
10:35 pm 22:35 Clear 56 13.5 41 4.8 56 56 ENE 13 20 30.24 1024 10 16 N/A
10:55 pm 22:55 Clear 54 12.3 42 5.3 63 63 ENE 10 17 30.24 1024 10 16 N/A
11:15 pm 23:15 Clear 54 12 42 5.5 65 65 ENE 12 19 30.27 1025 10 16 N/A
11:35 pm 23:35 Clear 53 11.5 42 5.7 68 68 ENE 14 22 30.27 1025 10 16 N/A
11:55 pm 23:55 Clear 52 11 42 5.8 71 71 ENE 10 17 30.27 1025 10 16 N/A

Powered by AerisWeather